Bornholm — C4KF2 — position and weather

sailwx.info

Track history (hours):
 
Tides and Currents Weather Stations Pressure Air Temp Water Temp Dewpoint Dewpoint Depression Visibility Wind Speed Wind Dir Waves Ship Positions

Bornholm

Last reported at 2014-Nov-26 22:32 UTC. Time now 2014-Nov-27 00:10 UTC.
Position N 37°53' W 000°12'.

Length 118 m; draft 4.9 m.

Type: Cargo ship. MMSI: 212521000.

Date/timePositionNaut miles runAvg speedWind from/ knotsBaromVisibWave heightAir tempDewpointWater temp
2014-Nov-26 22:32N 37°53' W 000°12'12210.2
2014-Nov-26 10:31N 39°23' E 001°34'1111.0
2014-Nov-26 09:33N 39°31' E 001°43'19 9.6
2014-Nov-26 07:33N 39°44' E 002°01'10 9.9
2014-Nov-26 06:33N 39°51' E 002°10'10 9.7
2014-Nov-26 05:33N 39°57' E 002°20'1010.0
2014-Nov-26 04:33N 40°04' E 002°30'10 9.8
2014-Nov-26 03:33N 40°11' E 002°39'10 9.8
2014-Nov-26 02:33N 40°17' E 002°49'10 9.8
2014-Nov-26 01:33N 40°23' E 002°59'10 9.9
2014-Nov-26 00:33N 40°30' E 003°08'9 9.2
2014-Nov-25 23:33N 40°36' E 003°18'10 9.6
2014-Nov-25 22:33N 40°42' E 003°27'10 9.8
2014-Nov-25 21:33N 40°49' E 003°37'10 9.9
2014-Nov-25 20:33N 40°55' E 003°47'2010.0
2014-Nov-25 18:32N 41°08' E 004°07'49 9.6
2014-Nov-25 13:27N 41°40' E 004°57'13 9.8
2014-Nov-25 12:04N 41°49' E 005°10'8 9.7
2014-Nov-25 11:13N 41°55' E 005°18'3010.6
2014-Nov-25 08:21N 42°14' E 005°49'810.4
2014-Nov-25 07:33N 42°20' E 005°58'1010.5
2014-Nov-25 06:33N 42°20' E 006°12'20 9.4
2014-Nov-25 04:25N 42°30' E 006°36'3010.1
2014-Nov-25 01:29N 42°49' E 007°06'8510.7
2014-Nov-24 17:33N 43°46' E 008°32'1 0.9
2014-Nov-24 16:24N 43°45' E 008°33'1 0.8
2014-Nov-24 15:33N 43°45' E 008°34'1 0.8
2014-Nov-24 14:33N 43°44' E 008°34'1 0.7
2014-Nov-24 13:34N 43°44' E 008°35'1 0.8
2014-Nov-24 12:33N 43°43' E 008°36'1 0.9
2014-Nov-24 11:33N 43°43' E 008°37'1 0.8
2014-Nov-24 10:33N 43°43' E 008°39'1 1.1
2014-Nov-24 09:34N 43°43' E 008°40'3 3.4
2014-Nov-24 08:33N 43°44' E 008°36'3 2.8
2014-Nov-24 07:23N 43°46' E 008°32'1 1.2
2014-Nov-24 06:33N 43°46' E 008°33'1 1.3
2014-Nov-24 05:33N 43°46' E 008°35'1 1.3
2014-Nov-24 04:33N 43°46' E 008°37'1 1.3
2014-Nov-24 03:34N 43°46' E 008°39'1 1.2
2014-Nov-24 02:34N 43°47' E 008°40'1 1.2
2014-Nov-24 01:33N 43°47' E 008°42'1 1.0
2014-Nov-24 00:33N 43°47' E 008°43'1 1.0
2014-Nov-23 23:34N 43°48' E 008°45'1 1.0
2014-Nov-23 22:34N 43°48' E 008°46'7 6.8
2014-Nov-23 21:33N 43°52' E 008°39'1 1.0
2014-Nov-23 20:33N 43°52' E 008°40'1 1.0
2014-Nov-23 19:33N 43°51' E 008°41'1 1.1
2014-Nov-23 18:33N 43°50' E 008°42'1 1.3
2014-Nov-23 17:33N 43°49' E 008°43'2 1.5
2014-Nov-23 16:33N 43°48' E 008°45'2 1.6
2014-Nov-23 15:33N 43°47' E 008°47'7 6.5
2014-Nov-23 14:33N 43°46' E 008°38'6 5.9
2014-Nov-23 13:33N 43°45' E 008°30'2 1.6
2014-Nov-23 12:33N 43°45' E 008°32'1 1.4
2014-Nov-23 11:33N 43°45' E 008°34'1 1.3
2014-Nov-23 10:33N 43°46' E 008°36'1 1.3
2014-Nov-23 09:33N 43°46' E 008°37'1 1.3
2014-Nov-23 08:33N 43°47' E 008°39'1 1.1
2014-Nov-23 07:33N 43°47' E 008°40'1 1.0
2014-Nov-23 06:33N 43°48' E 008°42'1 0.9
2014-Nov-23 05:33N 43°48' E 008°43'1 0.9
2014-Nov-23 04:33N 43°49' E 008°44'1 1.0
2014-Nov-23 03:33N 43°49' E 008°44'1 0.9
2014-Nov-23 02:33N 43°50' E 008°45'1 0.9
2014-Nov-23 01:33N 43°51' E 008°46'1 0.9
2014-Nov-23 00:33N 43°52' E 008°46'1 0.8
2014-Nov-22 23:33N 43°52' E 008°47'1 0.9
2014-Nov-22 22:33N 43°53' E 008°48'1 0.9
2014-Nov-22 21:33N 43°54' E 008°48'1 0.9
2014-Nov-22 20:33N 43°55' E 008°48'1 1.2
2014-Nov-22 19:33N 43°56' E 008°48'1110.5
2014-Nov-22 18:33N 44°05' E 008°42'1111.0
2014-Nov-22 17:33N 44°15' E 008°34'5 3.6
2014-Nov-22 16:13N 44°19' E 008°30'0 0.0
2014-Nov-22 15:19N 44°19' E 008°30'0 0.0
2014-Nov-22 14:22N 44°19' E 008°30'0 0.0
2014-Nov-22 11:31N 44°19' E 008°30'0 0.0
2014-Nov-22 10:31N 44°19' E 008°30'0 0.0
2014-Nov-22 09:25N 44°19' E 008°30'0 0.0
2014-Nov-22 08:13N 44°19' E 008°30'0 0.0
2014-Nov-22 07:22N 44°19' E 008°30'0 0.0
2014-Nov-22 06:25N 44°19' E 008°30'0 0.0
2014-Nov-22 04:04N 44°19' E 008°30'0 0.0
2014-Nov-22 03:16N 44°19' E 008°30'0 0.0
2014-Nov-22 02:31N 44°19' E 008°30'0 0.0
2014-Nov-22 01:16N 44°19' E 008°30'0 0.0
2014-Nov-22 00:31N 44°19' E 008°30'0 0.0
2014-Nov-21 23:25N 44°19' E 008°30'0 0.0
2014-Nov-21 22:31N 44°19' E 008°30'0 0.0
2014-Nov-21 20:25N 44°19' E 008°30'0 0.0
2014-Nov-21 19:31N 44°19' E 008°30'0 0.0
2014-Nov-21 18:25N 44°19' E 008°30'0 0.0
2014-Nov-21 17:25N 44°19' E 008°30'0 0.0
2014-Nov-21 16:04N 44°19' E 008°30'0 0.0
2014-Nov-21 15:22N 44°19' E 008°30'0 0.0
2014-Nov-21 14:25N 44°19' E 008°30'0 0.0
2014-Nov-21 12:19N 44°19' E 008°30'0 0.0
2014-Nov-21 11:31N 44°19' E 008°30'0 0.0
2014-Nov-21 09:19N 44°19' E 008°30'0 0.0
2014-Nov-21 08:25N 44°19' E 008°30'0 0.0
2014-Nov-21 07:28N 44°19' E 008°30'0 0.0
2014-Nov-21 04:07N 44°19' E 008°30'0 0.0
2014-Nov-21 03:31N 44°19' E 008°30'0 0.0
2014-Nov-21 02:31N 44°19' E 008°30'0 0.0
2014-Nov-21 01:31N 44°19' E 008°30'0 0.0
2014-Nov-21 00:28N 44°19' E 008°30'0 0.0
2014-Nov-20 23:22N 44°19' E 008°30'0 0.0
2014-Nov-20 22:31N 44°19' E 008°30'0 0.0
2014-Nov-20 19:25N 44°19' E 008°30'0 0.0
2014-Nov-20 16:19N 44°19' E 008°30'0 0.0
2014-Nov-20 15:22N 44°19' E 008°30'0 0.0
2014-Nov-20 13:07N 44°19' E 008°30'0 0.0
2014-Nov-20 12:25N 44°19' E 008°30'0 0.0
2014-Nov-20 11:28N 44°19' E 008°30'0 0.0
2014-Nov-20 10:31N 44°19' E 008°30'0 0.0
2014-Nov-20 09:19N 44°19' E 008°30'0 0.0
2014-Nov-20 08:04N 44°19' E 008°30'0 0.0
2014-Nov-20 07:28N 44°19' E 008°30'0 0.0
2014-Nov-20 06:31N 44°19' E 008°30'0 0.0
2014-Nov-20 05:13N 44°19' E 008°30'0 0.0
2014-Nov-20 04:31N 44°19' E 008°30'0 0.0
2014-Nov-20 03:31N 44°19' E 008°30'0 0.0
2014-Nov-20 02:28N 44°19' E 008°30'0 0.0
2014-Nov-20 01:31N 44°19' E 008°30'0 0.0
2014-Nov-20 00:19N 44°19' E 008°30'0 0.0
2014-Nov-19 23:31N 44°19' E 008°30'0 0.0
2014-Nov-19 22:25N 44°19' E 008°30'0 0.0
2014-Nov-19 21:19N 44°19' E 008°30'0 0.0
2014-Nov-19 20:31N 44°19' E 008°30'0 0.0
2014-Nov-19 19:31N 44°19' E 008°30'0 0.0
2014-Nov-19 17:28N 44°19' E 008°30'0 0.0
2014-Nov-19 16:22N 44°19' E 008°30'0 0.0
2014-Nov-19 15:31N 44°19' E 008°30'0 0.0
2014-Nov-19 14:31N 44°19' E 008°30'0 0.0
2014-Nov-19 13:25N 44°19' E 008°30'0 0.0
2014-Nov-19 11:31N 44°19' E 008°30'0 0.0
2014-Nov-19 10:19N 44°19' E 008°30'0 0.0
2014-Nov-19 09:25N 44°19' E 008°30'0 0.0
2014-Nov-19 08:22N 44°19' E 008°30'0 0.0
2014-Nov-19 07:28N 44°19' E 008°30'0 0.0
2014-Nov-19 06:31N 44°19' E 008°30'0 0.0
2014-Nov-19 05:33N 44°19' E 008°30'3 2.8
2014-Nov-19 04:32N 44°17' E 008°33'8 8.0
2014-Nov-19 03:33N 44°09' E 008°31'10 9.9
2014-Nov-19 02:30N 43°59' E 008°28'49 9.6
2014-Nov-18 21:22N 43°25' E 007°38'9 9.7
2014-Nov-18 20:25N 43°19' E 007°28'9 9.8
2014-Nov-18 19:30N 43°13' E 007°19'9 9.6
2014-Nov-18 18:31N 43°07' E 007°09'9 9.4
2014-Nov-18 17:33N 43°01' E 007°00'12 9.3
2014-Nov-18 16:15N 42°53' E 006°48'7 9.3
2014-Nov-18 15:29N 42°48' E 006°40'1010.2
2014-Nov-18 14:33N 42°42' E 006°31'19 9.6
2014-Nov-18 12:33N 42°29' E 006°12'16911.3
2014-Nov-17 21:33N 40°35' E 003°24'1211.9
2014-Nov-17 20:33N 40°26' E 003°13'1211.8
2014-Nov-17 19:33N 40°18' E 003°02'1211.6
2014-Nov-17 18:33N 40°11' E 002°50'1211.6
2014-Nov-17 17:33N 40°03' E 002°39'1211.6
2014-Nov-17 16:33N 39°55' E 002°28'1211.6
2014-Nov-17 15:33N 39°48' E 002°16'1211.8
2014-Nov-17 14:33N 39°40' E 002°05'1211.9
2014-Nov-17 13:33N 39°32' E 001°54'1212.0
2014-Nov-17 12:33N 39°24' E 001°42'1211.8
2014-Nov-17 11:33N 39°16' E 001°31'13311.8
2014-Nov-17 00:19N 37°39' W 000°25'911.5
2014-Nov-16 23:33N 37°32' W 000°32'1211.9
2014-Nov-16 22:33N 37°24' W 000°44'  
Track history (hours):
 
Tides and Currents Weather Stations Pressure Air Temp Water Temp Dewpoint Dewpoint Depression Visibility Wind Speed Wind Dir Waves Ship Positions

Bornholm

Last reported at 2014-Nov-26 22:32 UTC. Time now 2014-Nov-27 00:10 UTC.
Position N 37°53' W 000°12'.

Length 118 m; draft 4.9 m.

Type: Cargo ship. MMSI: 212521000.

Date/timePositionNaut miles runAvg speedWind from/ knotsBaromVisibWave heightAir tempDewpointWater temp
2014-Nov-26 22:32N 37°53' W 000°12'12210.2
2014-Nov-26 10:31N 39°23' E 001°34'1111.0
2014-Nov-26 09:33N 39°31' E 001°43'19 9.6
2014-Nov-26 07:33N 39°44' E 002°01'10 9.9
2014-Nov-26 06:33N 39°51' E 002°10'10 9.7
2014-Nov-26 05:33N 39°57' E 002°20'1010.0
2014-Nov-26 04:33N 40°04' E 002°30'10 9.8
2014-Nov-26 03:33N 40°11' E 002°39'10 9.8
2014-Nov-26 02:33N 40°17' E 002°49'10 9.8
2014-Nov-26 01:33N 40°23' E 002°59'10 9.9
2014-Nov-26 00:33N 40°30' E 003°08'9 9.2
2014-Nov-25 23:33N 40°36' E 003°18'10 9.6
2014-Nov-25 22:33N 40°42' E 003°27'10 9.8
2014-Nov-25 21:33N 40°49' E 003°37'10 9.9
2014-Nov-25 20:33N 40°55' E 003°47'2010.0
2014-Nov-25 18:32N 41°08' E 004°07'49 9.6
2014-Nov-25 13:27N 41°40' E 004°57'13 9.8
2014-Nov-25 12:04N 41°49' E 005°10'8 9.7
2014-Nov-25 11:13N 41°55' E 005°18'3010.6
2014-Nov-25 08:21N 42°14' E 005°49'810.4
2014-Nov-25 07:33N 42°20' E 005°58'1010.5
2014-Nov-25 06:33N 42°20' E 006°12'20 9.4
2014-Nov-25 04:25N 42°30' E 006°36'3010.1
2014-Nov-25 01:29N 42°49' E 007°06'8510.7
2014-Nov-24 17:33N 43°46' E 008°32'1 0.9
2014-Nov-24 16:24N 43°45' E 008°33'1 0.8
2014-Nov-24 15:33N 43°45' E 008°34'1 0.8
2014-Nov-24 14:33N 43°44' E 008°34'1 0.7
2014-Nov-24 13:34N 43°44' E 008°35'1 0.8
2014-Nov-24 12:33N 43°43' E 008°36'1 0.9
2014-Nov-24 11:33N 43°43' E 008°37'1 0.8
2014-Nov-24 10:33N 43°43' E 008°39'1 1.1
2014-Nov-24 09:34N 43°43' E 008°40'3 3.4
2014-Nov-24 08:33N 43°44' E 008°36'3 2.8
2014-Nov-24 07:23N 43°46' E 008°32'1 1.2
2014-Nov-24 06:33N 43°46' E 008°33'1 1.3
2014-Nov-24 05:33N 43°46' E 008°35'1 1.3
2014-Nov-24 04:33N 43°46' E 008°37'1 1.3
2014-Nov-24 03:34N 43°46' E 008°39'1 1.2
2014-Nov-24 02:34N 43°47' E 008°40'1 1.2
2014-Nov-24 01:33N 43°47' E 008°42'1 1.0
2014-Nov-24 00:33N 43°47' E 008°43'1 1.0
2014-Nov-23 23:34N 43°48' E 008°45'1 1.0
2014-Nov-23 22:34N 43°48' E 008°46'7 6.8
2014-Nov-23 21:33N 43°52' E 008°39'1 1.0
2014-Nov-23 20:33N 43°52' E 008°40'1 1.0
2014-Nov-23 19:33N 43°51' E 008°41'1 1.1
2014-Nov-23 18:33N 43°50' E 008°42'1 1.3
2014-Nov-23 17:33N 43°49' E 008°43'2 1.5
2014-Nov-23 16:33N 43°48' E 008°45'2 1.6
2014-Nov-23 15:33N 43°47' E 008°47'7 6.5
2014-Nov-23 14:33N 43°46' E 008°38'6 5.9
2014-Nov-23 13:33N 43°45' E 008°30'2 1.6
2014-Nov-23 12:33N 43°45' E 008°32'1 1.4
2014-Nov-23 11:33N 43°45' E 008°34'1 1.3
2014-Nov-23 10:33N 43°46' E 008°36'1 1.3
2014-Nov-23 09:33N 43°46' E 008°37'1 1.3
2014-Nov-23 08:33N 43°47' E 008°39'1 1.1
2014-Nov-23 07:33N 43°47' E 008°40'1 1.0
2014-Nov-23 06:33N 43°48' E 008°42'1 0.9
2014-Nov-23 05:33N 43°48' E 008°43'1 0.9
2014-Nov-23 04:33N 43°49' E 008°44'1 1.0
2014-Nov-23 03:33N 43°49' E 008°44'1 0.9
2014-Nov-23 02:33N 43°50' E 008°45'1 0.9
2014-Nov-23 01:33N 43°51' E 008°46'1 0.9
2014-Nov-23 00:33N 43°52' E 008°46'1 0.8
2014-Nov-22 23:33N 43°52' E 008°47'1 0.9
2014-Nov-22 22:33N 43°53' E 008°48'1 0.9
2014-Nov-22 21:33N 43°54' E 008°48'1 0.9
2014-Nov-22 20:33N 43°55' E 008°48'1 1.2
2014-Nov-22 19:33N 43°56' E 008°48'1110.5
2014-Nov-22 18:33N 44°05' E 008°42'1111.0
2014-Nov-22 17:33N 44°15' E 008°34'5 3.6
2014-Nov-22 16:13N 44°19' E 008°30'0 0.0
2014-Nov-22 15:19N 44°19' E 008°30'0 0.0
2014-Nov-22 14:22N 44°19' E 008°30'0 0.0
2014-Nov-22 11:31N 44°19' E 008°30'0 0.0
2014-Nov-22 10:31N 44°19' E 008°30'0 0.0
2014-Nov-22 09:25N 44°19' E 008°30'0 0.0
2014-Nov-22 08:13N 44°19' E 008°30'0 0.0
2014-Nov-22 07:22N 44°19' E 008°30'0 0.0
2014-Nov-22 06:25N 44°19' E 008°30'0 0.0
2014-Nov-22 04:04N 44°19' E 008°30'0 0.0
2014-Nov-22 03:16N 44°19' E 008°30'0 0.0
2014-Nov-22 02:31N 44°19' E 008°30'0 0.0
2014-Nov-22 01:16N 44°19' E 008°30'0 0.0
2014-Nov-22 00:31N 44°19' E 008°30'0 0.0
2014-Nov-21 23:25N 44°19' E 008°30'0 0.0
2014-Nov-21 22:31N 44°19' E 008°30'0 0.0
2014-Nov-21 20:25N 44°19' E 008°30'0 0.0
2014-Nov-21 19:31N 44°19' E 008°30'0 0.0
2014-Nov-21 18:25N 44°19' E 008°30'0 0.0
2014-Nov-21 17:25N 44°19' E 008°30'0 0.0
2014-Nov-21 16:04N 44°19' E 008°30'0 0.0
2014-Nov-21 15:22N 44°19' E 008°30'0 0.0
2014-Nov-21 14:25N 44°19' E 008°30'0 0.0
2014-Nov-21 12:19N 44°19' E 008°30'0 0.0
2014-Nov-21 11:31N 44°19' E 008°30'0 0.0
2014-Nov-21 09:19N 44°19' E 008°30'0 0.0
2014-Nov-21 08:25N 44°19' E 008°30'0 0.0
2014-Nov-21 07:28N 44°19' E 008°30'0 0.0
2014-Nov-21 04:07N 44°19' E 008°30'0 0.0
2014-Nov-21 03:31N 44°19' E 008°30'0 0.0
2014-Nov-21 02:31N 44°19' E 008°30'0 0.0
2014-Nov-21 01:31N 44°19' E 008°30'0 0.0
2014-Nov-21 00:28N 44°19' E 008°30'0 0.0
2014-Nov-20 23:22N 44°19' E 008°30'0 0.0
2014-Nov-20 22:31N 44°19' E 008°30'0 0.0
2014-Nov-20 19:25N 44°19' E 008°30'0 0.0
2014-Nov-20 16:19N 44°19' E 008°30'0 0.0
2014-Nov-20 15:22N 44°19' E 008°30'0 0.0
2014-Nov-20 13:07N 44°19' E 008°30'0 0.0
2014-Nov-20 12:25N 44°19' E 008°30'0 0.0
2014-Nov-20 11:28N 44°19' E 008°30'0 0.0
2014-Nov-20 10:31N 44°19' E 008°30'0 0.0
2014-Nov-20 09:19N 44°19' E 008°30'0 0.0
2014-Nov-20 08:04N 44°19' E 008°30'0 0.0
2014-Nov-20 07:28N 44°19' E 008°30'0 0.0
2014-Nov-20 06:31N 44°19' E 008°30'0 0.0
2014-Nov-20 05:13N 44°19' E 008°30'0 0.0
2014-Nov-20 04:31N 44°19' E 008°30'0 0.0
2014-Nov-20 03:31N 44°19' E 008°30'0 0.0
2014-Nov-20 02:28N 44°19' E 008°30'0 0.0
2014-Nov-20 01:31N 44°19' E 008°30'0 0.0
2014-Nov-20 00:19N 44°19' E 008°30'0 0.0
2014-Nov-19 23:31N 44°19' E 008°30'0 0.0
2014-Nov-19 22:25N 44°19' E 008°30'0 0.0
2014-Nov-19 21:19N 44°19' E 008°30'0 0.0
2014-Nov-19 20:31N 44°19' E 008°30'0 0.0
2014-Nov-19 19:31N 44°19' E 008°30'0 0.0
2014-Nov-19 17:28N 44°19' E 008°30'0 0.0
2014-Nov-19 16:22N 44°19' E 008°30'0 0.0
2014-Nov-19 15:31N 44°19' E 008°30'0 0.0
2014-Nov-19 14:31N 44°19' E 008°30'0 0.0
2014-Nov-19 13:25N 44°19' E 008°30'0 0.0
2014-Nov-19 11:31N 44°19' E 008°30'0 0.0
2014-Nov-19 10:19N 44°19' E 008°30'0 0.0
2014-Nov-19 09:25N 44°19' E 008°30'0 0.0
2014-Nov-19 08:22N 44°19' E 008°30'0 0.0
2014-Nov-19 07:28N 44°19' E 008°30'0 0.0
2014-Nov-19 06:31N 44°19' E 008°30'0 0.0
2014-Nov-19 05:33N 44°19' E 008°30'3 2.8
2014-Nov-19 04:32N 44°17' E 008°33'8 8.0
2014-Nov-19 03:33N 44°09' E 008°31'10 9.9
2014-Nov-19 02:30N 43°59' E 008°28'49 9.6
2014-Nov-18 21:22N 43°25' E 007°38'9 9.7
2014-Nov-18 20:25N 43°19' E 007°28'9 9.8
2014-Nov-18 19:30N 43°13' E 007°19'9 9.6
2014-Nov-18 18:31N 43°07' E 007°09'9 9.4
2014-Nov-18 17:33N 43°01' E 007°00'12 9.3
2014-Nov-18 16:15N 42°53' E 006°48'7 9.3
2014-Nov-18 15:29N 42°48' E 006°40'1010.2
2014-Nov-18 14:33N 42°42' E 006°31'19 9.6
2014-Nov-18 12:33N 42°29' E 006°12'16911.3
2014-Nov-17 21:33N 40°35' E 003°24'1211.9
2014-Nov-17 20:33N 40°26' E 003°13'1211.8
2014-Nov-17 19:33N 40°18' E 003°02'1211.6
2014-Nov-17 18:33N 40°11' E 002°50'1211.6
2014-Nov-17 17:33N 40°03' E 002°39'1211.6
2014-Nov-17 16:33N 39°55' E 002°28'1211.6
2014-Nov-17 15:33N 39°48' E 002°16'1211.8
2014-Nov-17 14:33N 39°40' E 002°05'1211.9
2014-Nov-17 13:33N 39°32' E 001°54'1212.0
2014-Nov-17 12:33N 39°24' E 001°42'1211.8
2014-Nov-17 11:33N 39°16' E 001°31'13311.8
2014-Nov-17 00:19N 37°39' W 000°25'911.5
2014-Nov-16 23:33N 37°32' W 000°32'1211.9
2014-Nov-16 22:33N 37°24' W 000°44'  

Dump ship's entire track history